TimeCST,TemperatureF,Dew PointF,Humidity,Sea Level PressureIn,VisibilityMPH,Wind Direction,Wind SpeedMPH,Gust SpeedMPH,PrecipitationIn,Events,Conditions,WindDirDegrees,DateUTC
12:13 AM,24.8,24.8,100,29.69,1.5,NNE,8.1,-,N/A,Snow,Light Snow,30,2013-12-04 06:13:00
12:33 AM,24.8,23.0,93,29.69,1.0,NNE,5.8,-,N/A,Snow,Snow,20,2013-12-04 06:33:00
12:53 AM,24.8,23.0,93,29.69,0.8,North,4.6,-,N/A,Snow,Snow,360,2013-12-04 06:53:00
1:13 AM,24.8,23.0,93,29.70,0.8,North,4.6,-,N/A,Snow,Snow,360,2013-12-04 07:13:00
1:33 AM,24.8,23.0,93,29.70,1.0,North,3.5,-,N/A,Snow,Snow,360,2013-12-04 07:33:00
1:53 AM,24.8,23.0,93,29.70,0.8,NNW,5.8,-,N/A,Snow,Snow,330,2013-12-04 07:53:00
2:13 AM,24.8,23.0,93,29.70,1.0,NNW,9.2,-,N/A,Snow,Snow,340,2013-12-04 08:13:00
2:33 AM,24.8,23.0,93,29.70,1.0,North,4.6,-,N/A,Snow,Snow,360,2013-12-04 08:33:00
2:53 AM,23.0,21.2,93,29.69,2.0,North,5.8,-,N/A,Snow,Light Snow,10,2013-12-04 08:53:00
3:14 AM,23.0,21.2,93,29.66,2.0,North,6.9,-,N/A,Snow,Light Snow,10,2013-12-04 09:14:00
3:33 AM,23.0,21.2,93,29.67,2.0,North,8.1,-,N/A,Snow,Light Snow,350,2013-12-04 09:33:00
3:53 AM,23.0,21.2,93,29.67,1.8,North,11.5,-,N/A,Snow,Light Snow,350,2013-12-04 09:53:00
4:13 AM,23.0,21.2,93,29.66,1.5,North,8.1,-,N/A,Snow,Light Snow,350,2013-12-04 10:13:00
4:33 AM,23.0,21.2,93,29.67,1.2,NNW,11.5,-,N/A,Snow,Light Snow,340,2013-12-04 10:33:00
4:53 AM,23.0,21.2,93,29.67,0.8,North,10.4,-,N/A,Snow,Snow,350,2013-12-04 10:53:00
5:13 AM,23.0,21.2,93,29.65,0.8,North,9.2,-,N/A,Snow,Snow,350,2013-12-04 11:13:00
5:34 AM,23.0,21.2,93,29.64,1.5,North,9.2,-,N/A,Snow,Light Snow,350,2013-12-04 11:34:00
5:53 AM,23.0,21.2,93,29.63,1.2,North,6.9,-,N/A,Snow,Light Snow,350,2013-12-04 11:53:00
6:13 AM,23.0,21.2,93,29.64,0.8,North,5.8,-,N/A,Snow,Snow,350,2013-12-04 12:13:00
6:33 AM,23.0,21.2,93,29.63,0.8,North,4.6,-,N/A,Snow,Snow,10,2013-12-04 12:33:00
6:53 AM,23.0,21.2,93,29.62,1.0,North,5.8,-,N/A,Snow,Snow,350,2013-12-04 12:53:00
7:13 AM,23.0,21.2,93,29.62,0.8,North,6.9,-,N/A,Snow,Snow,350,2013-12-04 13:13:00
7:33 AM,23.0,21.2,93,29.62,0.8,NNW,8.1,-,N/A,Snow,Snow,340,2013-12-04 13:33:00
7:53 AM,24.8,21.2,86,29.60,0.5,North,4.6,-,N/A,Snow,Snow,360,2013-12-04 13:53:00
8:13 AM,24.8,23.0,93,29.60,1.5,North,4.6,-,N/A,,Overcast,10,2013-12-04 14:13:00
8:33 AM,24.8,24.8,100,29.60,1.5,North,4.6,-,N/A,,Overcast,10,2013-12-04 14:33:00
8:53 AM,24.8,24.8,100,29.60,1.8,North,3.5,-,N/A,Snow,Light Snow,350,2013-12-04 14:53:00
9:13 AM,26.6,24.8,93,29.60,0.8,NNW,3.5,-,N/A,Snow,Light Snow,330,2013-12-04 15:13:00
9:33 AM,24.8,21.2,86,29.62,0.5,WNW,9.2,-,N/A,Snow,Light Snow,300,2013-12-04 15:33:00
9:53 AM,21.2,21.2,100,29.61,0.5,NW,13.8,-,N/A,Snow,Light Snow,320,2013-12-04 15:53:00
10:13 AM,21.2,19.4,93,29.61,1.0,NNW,15.0,23.0,N/A,Snow,Light Snow,330,2013-12-04 16:13:00
10:33 AM,21.2,19.4,93,29.61,2.5,NNW,12.7,-,N/A,Snow,Light Snow,330,2013-12-04 16:33:00
10:53 AM,21.2,19.4,93,29.61,1.5,NW,11.5,-,N/A,Snow,Light Snow,320,2013-12-04 16:53:00
11:13 AM,21.2,19.4,93,29.61,1.8,NW,10.4,-,N/A,Snow,Light Snow,310,2013-12-04 17:13:00
11:33 AM,21.2,19.4,93,29.60,3.0,NW,13.8,-,N/A,Snow,Light Snow,320,2013-12-04 17:33:00
11:53 AM,21.2,19.4,93,29.58,1.2,NW,15.0,20.7,N/A,Snow,Light Snow,320,2013-12-04 17:53:00
12:13 PM,21.2,19.4,93,29.57,1.5,NNW,12.7,-,N/A,Snow,Light Snow,330,2013-12-04 18:13:00
12:33 PM,21.2,19.4,93,29.57,0.8,NW,15.0,-,N/A,Snow,Light Snow,320,2013-12-04 18:33:00
12:53 PM,21.2,19.4,93,29.57,1.2,NW,13.8,19.6,N/A,Snow,Light Snow,310,2013-12-04 18:53:00
1:13 PM,19.4,17.6,93,29.57,1.2,NW,19.6,25.3,N/A,Snow,Light Snow,310,2013-12-04 19:13:00
1:33 PM,19.4,15.8,86,29.57,2.5,NW,18.4,23.0,N/A,Snow,Light Snow,310,2013-12-04 19:33:00
1:53 PM,19.4,15.8,86,29.56,2.0,NW,16.1,20.7,N/A,Snow,Light Snow,310,2013-12-04 19:53:00
2:13 PM,19.4,15.8,86,29.56,7.0,NW,13.8,18.4,N/A,Snow,Light Snow,310,2013-12-04 20:13:00
2:33 PM,19.4,15.8,86,29.56,10.0,NW,15.0,-,N/A,,Overcast,310,2013-12-04 20:33:00
2:53 PM,19.4,15.8,86,29.58,10.0,WNW,18.4,-,N/A,,Overcast,300,2013-12-04 20:53:00
3:13 PM,19.4,15.8,86,29.58,10.0,NW,17.3,20.7,N/A,,Overcast,310,2013-12-04 21:13:00
3:33 PM,19.4,15.8,86,29.62,10.0,WNW,17.3,-,N/A,,Overcast,300,2013-12-04 21:33:00
3:53 PM,19.4,17.6,93,29.62,10.0,WNW,16.1,-,N/A,,Overcast,300,2013-12-04 21:53:00
4:13 PM,21.2,17.6,86,29.61,10.0,NNW,21.9,26.5,N/A,,Overcast,330,2013-12-04 22:13:00
4:33 PM,19.4,17.6,93,29.61,10.0,NW,17.3,21.9,N/A,,Overcast,320,2013-12-04 22:33:00
4:53 PM,19.4,15.8,86,29.63,10.0,NW,18.4,27.6,N/A,,Overcast,320,2013-12-04 22:53:00
5:13 PM,17.6,15.8,93,29.67,7.0,NW,20.7,29.9,N/A,,Overcast,320,2013-12-04 23:13:00
5:33 PM,17.6,12.2,79,29.68,7.0,NW,17.3,31.1,N/A,Snow,Light Snow,320,2013-12-04 23:33:00
5:53 PM,15.8,10.4,79,29.69,7.0,NW,20.7,31.1,N/A,,Overcast,320,2013-12-04 23:53:00
6:13 PM,12.2,10.4,92,29.69,5.0,NW,24.2,32.2,N/A,Snow,Light Snow,320,2013-12-05 00:13:00
6:33 PM,12.2,8.6,85,29.71,5.0,NW,23.0,28.8,N/A,Snow,Light Snow,310,2013-12-05 00:33:00
6:53 PM,12.2,8.6,85,29.70,3.0,NW,24.2,33.4,N/A,Snow,Light Snow,310,2013-12-05 00:53:00
7:13 PM,10.4,6.8,85,29.73,3.0,NW,21.9,34.5,N/A,Snow,Light Snow,320,2013-12-05 01:13:00
7:33 PM,10.4,6.8,85,29.74,4.0,NW,25.3,34.5,N/A,,Overcast,320,2013-12-05 01:33:00
7:53 PM,10.4,6.8,85,29.73,3.0,NW,26.5,34.5,N/A,,Overcast,320,2013-12-05 01:53:00
8:13 PM,8.6,5.0,85,29.74,2.5,NW,27.6,34.5,N/A,Snow,Light Snow,320,2013-12-05 02:13:00
8:33 PM,8.6,3.2,79,29.75,3.0,NW,25.3,39.1,N/A,Snow,Light Snow,320,2013-12-05 02:33:00
8:53 PM,8.6,3.2,79,29.76,4.0,NW,25.3,33.4,N/A,,Mostly Cloudy,320,2013-12-05 02:53:00
9:13 PM,8.6,3.2,79,29.77,4.0,NW,21.9,29.9,N/A,,Haze,320,2013-12-05 03:13:00
9:33 PM,6.8,1.4,79,29.77,4.0,NW,25.3,34.5,N/A,,Haze,320,2013-12-05 03:33:00
9:53 PM,6.8,1.4,79,29.78,5.0,NW,23.0,31.1,N/A,,Overcast,320,2013-12-05 03:53:00
10:13 PM,6.8,1.4,79,29.79,7.0,NW,21.9,27.6,N/A,,Overcast,310,2013-12-05 04:13:00
10:33 PM,6.8,1.4,79,29.80,7.0,NW,20.7,26.5,N/A,,Overcast,320,2013-12-05 04:33:00
10:53 PM,6.8,1.4,79,29.81,7.0,NW,20.7,29.9,N/A,,Overcast,320,2013-12-05 04:53:00
11:13 PM,6.8,1.4,79,29.82,7.0,NW,19.6,28.8,N/A,,Overcast,310,2013-12-05 05:13:00
11:33 PM,6.8,1.4,79,29.84,7.0,NW,19.6,27.6,N/A,,Overcast,310,2013-12-05 05:33:00
11:53 PM,6.8,1.4,79,29.85,4.0,WNW,23.0,28.8,N/A,,Overcast,300,2013-12-05 05:53:00